STARLINK-1132, 45044

Orbit data source: Space-Track

STARLINK-1132, 45044 is a payload satellite owned by SpaceX/Seattle (US) in LEO that was launched on Wed, 29 Jan 2020 UTC via an FALCON 9 launch vehicle from the Air Force Eastern Test Range (AFETR). Payload-class satellites include a variety of spacecraft equipped with specific instruments for various scientific and technological missions. These include communications satellites like Starlink; space stations such as the ISS; scientific satellites like the Hubble; Earth observation satellites from companies like Planet Labs, Umbra, and HawkEye 360; GPS; miniature CubeSats for education and research; and military/defense satellites.

Loading next visibility...
Identifier
45044, 2020-006A
Orbit
LEO
Last TLE update
19 hours ago
Origin
Manufacturer
SpaceX/Seattle
Mission
Operational Commercial Communications
Bus & Motor
STARLINK, Unknown motor
Mass
260 kg wet, ~248 kg dry
Launch date (UTC)
2020-01-29 (5 years ago)
Launch vehicle
FALCON 9
Launch site
Air Force Eastern Test Range (AFETR)
Object type
Payload
Rocket body
Debris
Shape & HBR
Box + 1 Pan, 8.86 m
Radar Cross Section
13.562 m², Large (>1 m²)

Expand to show TLE details & history

TLE from 19 hours ago
0 STARLINK-1132
1 45044U 20006A   25128.45758976  .00001308  00000-0  10670-3 0  9993
2 45044  53.0539 196.8581 0001171  88.7432 271.3691 15.06402313290739
Epoch: 2025-05-08T10:58Z
Definitive object data (Epoch: 2025-05-08T10:58:55.755Z)
Latitude
-0.00002°
Longitude
165.59797°
Altitude
548.064 km
Speed
7.589 km/s
True Right ascension
13h 07m 25s
True Declination
0° 00' 00"
Sunlit
Object was in full shadow at TLE epoch
Visualization TLE readout
Latitude
10.58493°
Longitude
170.0466°
Altitude
547.15 km
Speed
7.591 km/s
Apparent Right ascension
11h 30m 45s
Apparent Declination
-50° 24' 40"
Sunlit
Object is in full shadow
Visualization observer readout
Local Sidereal Time
14:17:41
Azimuth
205.33° SW
Elevation
-7.455°
Doppler factor
1
Orbital elements
Apogee altitude
548.286 km
Perigee altitude
546.664 km
Semi-major axis
6,925.612 km
Eccentricity
0.0001171
Inclination
53.0539°
RAAN
196.8581°
Arg. of periapsis
88.7432°
True anomaly
271.35569°
Mean anomaly
271.3691°
Eccentric anomaly
271.36239°
Mean motion
3.76579 °/min
BSTAR
0.0001067
Orbital period
95.6 mins
Loading maneuver chart data...
Loading SW <> Apogee altitude chart data...
Loading historical data...
Loading historical data...
Loading historical data...
Loading historical data...
Loading historical data...
Loading historical data...
Loading historical data...

STARLINK-1132 Visibility forecast

Observer location: undefined°, undefined°

Span
Click to sort rows by Start time (UTC) header in descending order
Start Az.
Max El. time (UTC)
Max El. Az.
Max El.
End time (UTC)
End Az.
5 mins2025-05-09 06:14:54.099Z176.569° S2025-05-09 06:16:54.099Z139.733° SSE23.096°2025-05-09 06:19:54.099Z80.698° E
6 mins2025-05-09 07:53:54.099Z259.02° W2025-05-09 07:56:54.099Z339.359° N35.198°2025-05-09 07:59:54.099Z37.305° NE
6 mins2025-05-09 12:55:54.099Z334.474° NNW2025-05-09 12:58:54.099Z42.876° NE27.081°2025-05-09 13:01:54.099Z91.699° ESE
6 mins2025-05-09 14:35:54.099Z285.055° WNW2025-05-09 14:37:54.099Z232.455° WSW34.048°2025-05-09 14:41:54.099Z154.999° SSE
|